WXM80 ListenWXM80 Stop

You find our weather info also at:

UK Metoffice

WeatherCloud

Weather Underground

Northeastern Weather Network

AWEKAS

Citizen Weather Observer Program (CWOP)

HAMweather, WeatherForYou, PWS Weather


Weather Underground History page Text

Daily Summary for April 29, 2016 Units:  English    Metric   Both
« Previous Day
Next Day »
Daily Weekly Monthly Yearly Custom
  High: Low: Average:
Temperature: TemperatureF °F 45.3 °F 49.8 °F
Dew Point: DewpointF °F 34.2 °F 41 °F
Humidity: Humidity % 45 % 72 %
Wind Speed: WindSpeedMPH mph 0.0 mph 3.7 mph
Wind Gust: WindSpeedGustMPH mph - -
Wind:- - East
Pressure: PressureIn in 30.03 in -
Precipitation: 0.02 in    
Historical Graphs
 
 
Tabular Data for April 29, 2016
Time Temperature Dew Point Pressure Wind Wind Speed Wind Gust Humidity Rainfall Rate (Hourly)
TemperatureF °F DewpointF °F PressureIn in Calm     Humidity % HourlyPrecipIn in
00:00 49.0 °F 38.1 °F 30.04 in Calm     66 % 0.00 in
00:05 49.0 °F 38.5 °F 30.04 in Calm     67 % 0.00 in
00:10 49.0 °F 38.9 °F 30.04 in Calm     68 % 0.00 in
00:15 48.9 °F 38.8 °F 30.04 in Calm     68 % 0.00 in
00:20 48.9 °F 38.8 °F 30.04 in Calm     68 % 0.00 in
00:26 48.9 °F 38.4 °F 30.04 in Calm     67 % 0.00 in
00:31 48.8 °F 38.3 °F 30.04 in Calm     67 % 0.00 in
00:36 48.8 °F 38.3 °F 30.04 in Calm     67 % 0.00 in
00:41 48.7 °F 38.2 °F 30.05 in Calm     67 % 0.00 in
00:46 48.7 °F 38.6 °F 30.05 in Calm   1.2 mph 68 % 0.00 in
00:51 48.6 °F 38.5 °F 30.05 in Calm     68 % 0.00 in
00:56 48.6 °F 38.1 °F 30.05 in Calm     67 % 0.00 in
01:01 48.5 °F 37.7 °F 30.05 in Calm     66 % 0.00 in
01:06 48.6 °F 37.7 °F 30.05 in Calm     66 % 0.00 in
01:11 48.6 °F 38.1 °F 30.05 in Calm     67 % 0.00 in
01:17 48.6 °F 38.9 °F 30.04 in Calm     69 % 0.00 in
01:22 48.7 °F 39.4 °F 30.04 in Calm     70 % 0.00 in
01:27 48.7 °F 39.4 °F 30.04 in Calm     70 % 0.00 in
01:32 48.7 °F 39.4 °F 30.05 in Calm     70 % 0.00 in
01:37 48.6 °F 39.3 °F 30.04 in Calm     70 % 0.00 in
01:42 48.6 °F 39.3 °F 30.04 in Calm     70 % 0.00 in
01:47 48.6 °F 39.3 °F 30.04 in SE 0.2 mph 2.3 mph 70 % 0.00 in
01:52 48.6 °F 39.3 °F 30.04 in Calm   1.2 mph 70 % 0.00 in
01:57 48.5 °F 39.5 °F 30.03 in Calm     71 % 0.00 in
02:02 48.5 °F 39.5 °F 30.03 in Calm     71 % 0.00 in
02:08 48.5 °F 39.9 °F 30.03 in Calm   1.2 mph 72 % 0.00 in
02:18 48.4 °F 40.1 °F 30.03 in SE 0.6 mph 2.3 mph 73 % 0.00 in
02:23 48.4 °F 40.5 °F 30.03 in SE 0.1 mph 1.2 mph 74 % 0.00 in
02:28 48.4 °F 40.5 °F 30.03 in SE 0.7 mph 1.2 mph 74 % 0.00 in
02:33 48.4 °F 40.5 °F 30.03 in SE 0.2 mph 1.2 mph 74 % 0.00 in
02:38 48.3 °F 40.4 °F 30.03 in SE 0.5 mph 1.2 mph 74 % 0.00 in
02:48 48.3 °F 40.4 °F 30.03 in East 0.6 mph 3.5 mph 74 % 0.00 in
02:53 48.3 °F 40.4 °F 30.03 in East 0.6 mph 2.3 mph 74 % 0.00 in
02:59 48.3 °F 40.4 °F 30.03 in Calm   1.2 mph 74 % 0.00 in
03:04 48.3 °F 40.7 °F 30.04 in East 0.3 mph 1.2 mph 75 % 0.00 in
03:09 48.3 °F 40.7 °F 30.04 in East 1.2 mph 3.5 mph 75 % 0.00 in
03:14 48.3 °F 40.7 °F 30.03 in East 0.5 mph 1.2 mph 75 % 0.00 in
03:19 48.3 °F 40.7 °F 30.03 in East 0.6 mph 1.2 mph 75 % 0.00 in
03:24 48.3 °F 40.7 °F 30.03 in ESE 0.7 mph 1.2 mph 75 % 0.00 in
03:29 48.2 °F 40.6 °F 30.03 in ESE 1.3 mph 2.3 mph 75 % 0.00 in
03:34 48.2 °F 40.3 °F 30.03 in ESE 1.2 mph 2.3 mph 74 % 0.00 in
03:39 48.1 °F 40.2 °F 30.04 in ESE 0.8 mph 1.2 mph 74 % 0.00 in
03:45 48.1 °F 40.5 °F 30.04 in ESE 1.2 mph 2.0 mph 75 % 0.00 in
03:50 48.1 °F 40.5 °F 30.04 in ESE 0.8 mph 2.3 mph 75 % 0.00 in
03:55 48.0 °F 40.1 °F 30.04 in ESE 1.2 mph 3.5 mph 74 % 0.00 in
04:00 48.0 °F 40.1 °F 30.04 in ESE 2.0 mph 3.5 mph 74 % 0.00 in
04:05 47.9 °F 40.0 °F 30.04 in SE 2.1 mph 4.6 mph 74 % 0.00 in
04:10 47.9 °F 39.7 °F 30.05 in SE 0.8 mph 2.0 mph 73 % 0.00 in
04:15 47.8 °F 39.2 °F 30.05 in SE 1.4 mph 3.5 mph 72 % 0.00 in
04:20 47.8 °F 39.2 °F 30.05 in SE 1.1 mph 3.5 mph 72 % 0.00 in
04:25 47.8 °F 39.2 °F 30.05 in SE 1.4 mph 3.5 mph 72 % 0.00 in
04:30 47.8 °F 39.2 °F 30.05 in SE 1.1 mph 3.5 mph 72 % 0.00 in
04:36 47.7 °F 39.1 °F 30.05 in SE 1.6 mph 2.3 mph 72 % 0.00 in
04:41 47.7 °F 39.1 °F 30.06 in SE 1.2 mph 3.5 mph 72 % 0.00 in
04:46 47.7 °F 38.8 °F 30.06 in SE 2.2 mph 3.5 mph 71 % 0.00 in
04:51 47.7 °F 38.8 °F 30.06 in ESE 0.5 mph 2.3 mph 71 % 0.00 in
04:56 47.7 °F 38.8 °F 30.06 in ESE 1.0 mph 2.0 mph 71 % 0.00 in
05:01 47.7 °F 39.1 °F 30.06 in ESE 1.5 mph 2.3 mph 72 % 0.00 in
05:06 47.7 °F 39.5 °F 30.05 in East 3.3 mph 5.0 mph 73 % 0.00 in
05:11 47.7 °F 39.8 °F 30.05 in ENE 3.9 mph 4.6 mph 74 % 0.00 in
05:16 47.8 °F 39.9 °F 30.05 in ENE 2.9 mph 4.6 mph 74 % 0.00 in
05:21 47.8 °F 39.6 °F 30.05 in ENE 3.0 mph 5.8 mph 73 % 0.00 in
05:27 47.9 °F 39.7 °F 30.06 in NE 2.4 mph 4.6 mph 73 % 0.00 in
05:32 47.9 °F 40.0 °F 30.06 in East 4.0 mph 5.8 mph 74 % 0.00 in
05:37 48.0 °F 40.5 °F 30.07 in East 3.3 mph 4.6 mph 75 % 0.00 in
05:42 48.1 °F 40.5 °F 30.06 in East 3.8 mph 5.8 mph 75 % 0.00 in
05:47 48.0 °F 40.5 °F 30.06 in East 2.6 mph 4.6 mph 75 % 0.00 in
05:52 48.0 °F 39.8 °F 30.06 in East 2.6 mph 5.0 mph 73 % 0.00 in
05:57 48.0 °F 39.8 °F 30.07 in East 3.1 mph 5.0 mph 73 % 0.00 in
06:02 48.0 °F 39.8 °F 30.07 in East 1.8 mph 3.5 mph 73 % 0.00 in
06:07 47.9 °F 39.7 °F 30.07 in East 3.0 mph 3.5 mph 73 % 0.00 in
06:12 47.9 °F 39.7 °F 30.07 in East 3.7 mph 5.8 mph 73 % 0.00 in
06:18 47.9 °F 39.3 °F 30.07 in East 5.3 mph 6.9 mph 72 % 0.00 in
06:23 48.0 °F 39.8 °F 30.07 in East 4.2 mph 5.8 mph 73 % 0.00 in
06:28 47.9 °F 39.7 °F 30.07 in East 5.1 mph 6.0 mph 73 % 0.00 in
06:33 47.9 °F 39.3 °F 30.07 in ENE 6.3 mph 8.1 mph 72 % 0.00 in
06:38 47.9 °F 39.3 °F 30.07 in East 6.2 mph 7.0 mph 72 % 0.00 in
06:43 48.1 °F 39.9 °F 30.07 in East 4.5 mph 7.0 mph 73 % 0.00 in
06:48 48.1 °F 39.5 °F 30.08 in East 5.1 mph 7.0 mph 72 % 0.00 in
06:53 48.2 °F 39.2 °F 30.08 in ESE 2.4 mph 5.8 mph 71 % 0.00 in
06:58 48.2 °F 39.6 °F 30.08 in East 4.5 mph 7.0 mph 72 % 0.00 in
07:03 48.3 °F 39.7 °F 30.08 in East 3.7 mph 6.9 mph 72 % 0.00 in
07:09 48.5 °F 39.9 °F 30.08 in SSE 1.8 mph 2.3 mph 72 % 0.00 in
07:14 48.6 °F 40.0 °F 30.09 in East 1.4 mph 2.3 mph 72 % 0.00 in
07:19 48.8 °F 40.2 °F 30.09 in East 1.9 mph 4.6 mph 72 % 0.00 in
07:24 49.0 °F 40.4 °F 30.09 in ENE 2.3 mph 3.5 mph 72 % 0.00 in
07:29 49.1 °F 39.7 °F 30.09 in East 1.7 mph 4.6 mph 70 % 0.00 in
07:34 49.2 °F 39.8 °F 30.09 in ENE 1.3 mph 3.5 mph 70 % 0.00 in
07:39 49.3 °F 40.3 °F 30.09 in NE 1.7 mph 3.5 mph 71 % 0.00 in
07:44 49.5 °F 39.7 °F 30.09 in ENE 2.2 mph 3.5 mph 69 % 0.00 in
07:49 49.4 °F 39.7 °F 30.09 in East 2.1 mph 3.5 mph 69 % 0.00 in
07:54 49.5 °F 39.4 °F 30.10 in ENE 2.7 mph 4.6 mph 68 % 0.00 in
08:00 49.6 °F 39.5 °F 30.10 in East 2.5 mph 3.5 mph 68 % 0.00 in
08:05 49.6 °F 39.8 °F 30.09 in NE 2.6 mph 4.0 mph 69 % 0.00 in
08:10 49.7 °F 39.6 °F 30.09 in East 2.8 mph 5.8 mph 68 % 0.00 in
08:15 50.0 °F 39.8 °F 30.09 in ENE 2.3 mph 3.5 mph 68 % 0.00 in
08:20 50.5 °F 40.3 °F 30.10 in NE 2.7 mph 6.9 mph 68 % 0.00 in
08:25 50.7 °F 39.7 °F 30.10 in East 7.1 mph 10.0 mph 66 % 0.00 in
08:30 50.7 °F 39.7 °F 30.10 in ENE 2.1 mph 3.5 mph 66 % 0.00 in
08:35 50.6 °F 39.7 °F 30.10 in ENE 2.3 mph 3.5 mph 66 % 0.00 in
08:40 50.6 °F 39.7 °F 30.10 in ENE 1.6 mph 3.5 mph 66 % 0.00 in
08:45 50.6 °F 40.0 °F 30.10 in ENE 3.3 mph 8.1 mph 67 % 0.00 in
08:51 50.6 °F 40.0 °F 30.10 in NE 4.5 mph 9.2 mph 67 % 0.00 in
08:56 50.8 °F 39.8 °F 30.10 in East 7.5 mph 9.2 mph 66 % 0.00 in
09:01 50.9 °F 39.9 °F 30.10 in ENE 4.1 mph 8.1 mph 66 % 0.00 in
09:06 51.2 °F 41.0 °F 30.10 in NE 6.1 mph 8.1 mph 68 % 0.00 in
09:11 51.8 °F 41.6 °F 30.10 in ENE 5.4 mph 9.2 mph 68 % 0.00 in
09:16 52.6 °F 39.9 °F 30.10 in NE 6.6 mph 10.0 mph 62 % 0.00 in
09:21 53.1 °F 39.6 °F 30.10 in ENE 9.4 mph 11.5 mph 60 % 0.00 in
09:31 53.7 °F 36.5 °F 30.10 in ENE 5.5 mph 7.0 mph 52 % 0.00 in
09:36 54.4 °F 37.6 °F 30.10 in East 3.6 mph 6.9 mph 53 % 0.00 in
09:42 55.2 °F 36.4 °F 30.10 in East 3.4 mph 5.0 mph 49 % 0.00 in
09:47 55.2 °F 34.2 °F 30.10 in East 2.6 mph 5.8 mph 45 % 0.00 in
09:52 55.1 °F 36.3 °F 30.10 in East 2.7 mph 5.0 mph 49 % 0.00 in
09:57 55.1 °F 36.3 °F 30.11 in ENE 4.2 mph 9.2 mph 49 % 0.00 in
10:02 54.4 °F 40.4 °F 30.10 in ENE 7.3 mph 10.0 mph 59 % 0.00 in
10:07 53.9 °F 40.8 °F 30.11 in East 5.6 mph 11.0 mph 61 % 0.00 in
10:12 53.2 °F 39.7 °F 30.11 in ENE 5.6 mph 11.5 mph 60 % 0.00 in
10:17 53.0 °F 39.9 °F 30.10 in ENE 8.8 mph 11.5 mph 61 % 0.00 in
10:23 52.9 °F 39.8 °F 30.10 in ENE 9.5 mph 17.3 mph 61 % 0.00 in
10:28 52.5 °F 39.0 °F 30.11 in ENE 9.8 mph 16.1 mph 60 % 0.00 in
10:33 52.4 °F 39.8 °F 30.11 in ENE 9.6 mph 12.7 mph 62 % 0.00 in
10:38 52.6 °F 40.8 °F 30.10 in East 6.5 mph 11.5 mph 64 % 0.00 in
10:43 53.0 °F 40.7 °F 30.10 in ENE 7.8 mph 13.0 mph 63 % 0.00 in
10:48 53.2 °F 40.5 °F 30.10 in ENE 9.9 mph 13.0 mph 62 % 0.00 in
10:53 53.1 °F 40.8 °F 30.10 in ENE 10.7 mph 13.8 mph 63 % 0.00 in
10:58 53.1 °F 41.6 °F 30.10 in ENE 10.2 mph 15.0 mph 65 % 0.00 in
11:03 52.8 °F 41.0 °F 30.10 in ENE 11.0 mph 13.8 mph 64 % 0.00 in
11:08 53.0 °F 41.9 °F 30.10 in East 7.5 mph 12.7 mph 66 % 0.00 in
11:14 52.9 °F 41.4 °F 30.11 in ENE 12.7 mph 16.0 mph 65 % 0.00 in
11:19 52.6 °F 41.6 °F 30.11 in ENE 11.8 mph 16.0 mph 66 % 0.00 in
11:24 52.5 °F 40.7 °F 30.11 in ENE 12.4 mph 17.3 mph 64 % 0.00 in
11:29 52.4 °F 41.8 °F 30.11 in ENE 11.6 mph 18.0 mph 67 % 0.00 in
11:34 52.2 °F 42.0 °F 30.11 in NE 8.1 mph 11.5 mph 68 % 0.00 in
11:39 52.2 °F 42.0 °F 30.11 in ENE 7.8 mph 11.5 mph 68 % 0.00 in
11:44 52.2 °F 42.3 °F 30.12 in ENE 6.7 mph 12.0 mph 69 % 0.00 in
11:49 52.3 °F 42.4 °F 30.12 in ENE 7.1 mph 15.0 mph 69 % 0.00 in
11:54 52.3 °F 42.4 °F 30.12 in East 9.5 mph 13.8 mph 69 % 0.00 in
11:59 52.2 °F 42.0 °F 30.11 in East 10.0 mph 17.3 mph 68 % 0.00 in
12:05 51.9 °F 42.0 °F 30.11 in ENE 11.4 mph 13.0 mph 69 % 0.00 in
12:10 51.9 °F 42.0 °F 30.11 in East 9.9 mph 12.7 mph 69 % 0.00 in
12:15 52.0 °F 42.1 °F 30.11 in ENE 9.9 mph 15.0 mph 69 % 0.00 in
12:20 52.1 °F 42.2 °F 30.11 in ENE 6.5 mph 11.0 mph 69 % 0.00 in
12:25 52.0 °F 42.9 °F 30.11 in ENE 6.4 mph 10.4 mph 71 % 0.00 in
12:30 51.8 °F 42.3 °F 30.10 in ENE 10.7 mph 13.0 mph 70 % 0.00 in
12:40 52.0 °F 42.5 °F 30.09 in East 10.9 mph 15.0 mph 70 % 0.00 in
12:45 52.1 °F 43.3 °F 30.10 in East 7.6 mph 11.0 mph 72 % 0.00 in
12:50 52.2 °F 43.4 °F 30.09 in ENE 7.4 mph 12.7 mph 72 % 0.00 in
12:56 52.1 °F 43.3 °F 30.09 in ENE 8.4 mph 15.0 mph 72 % 0.00 in
13:01 52.3 °F 43.5 °F 30.09 in ENE 8.5 mph 17.3 mph 72 % 0.00 in
13:06 53.0 °F 44.2 °F 30.09 in ENE 10.4 mph 12.7 mph 72 % 0.00 in
13:11 53.3 °F 43.8 °F 30.09 in East 10.7 mph 16.1 mph 70 % 0.00 in
13:16 53.5 °F 44.0 °F 30.08 in ENE 9.4 mph 13.0 mph 70 % 0.00 in
13:21 53.3 °F 43.4 °F 30.08 in ENE 8.1 mph 15.0 mph 69 % 0.00 in
13:26 53.0 °F 43.8 °F 30.08 in NE 10.3 mph 15.0 mph 71 % 0.00 in
13:31 52.9 °F 43.4 °F 30.08 in ENE 10.3 mph 15.0 mph 70 % 0.00 in
13:36 52.7 °F 43.9 °F 30.08 in ENE 10.4 mph 16.1 mph 72 % 0.00 in
13:41 52.6 °F 43.5 °F 30.08 in ENE 12.2 mph 14.0 mph 71 % 0.00 in
13:47 52.3 °F 43.9 °F 30.08 in ENE 10.1 mph 13.8 mph 73 % 0.00 in
13:52 52.3 °F 43.9 °F 30.08 in East 6.6 mph 11.5 mph 73 % 0.00 in
13:57 52.7 °F 44.6 °F 30.07 in East 6.0 mph 13.8 mph 74 % 0.00 in
14:02 52.6 °F 43.8 °F 30.08 in East 7.3 mph 10.4 mph 72 % 0.00 in
14:07 52.7 °F 44.3 °F 30.07 in ENE 6.6 mph 16.1 mph 73 % 0.00 in
14:17 53.1 °F 44.7 °F 30.07 in East 6.5 mph 9.2 mph 73 % 0.00 in
14:22 53.4 °F 45.0 °F 30.07 in East 6.1 mph 11.5 mph 73 % 0.00 in
14:27 53.5 °F 44.3 °F 30.07 in ENE 6.8 mph 10.4 mph 71 % 0.00 in
14:32 53.2 °F 44.0 °F 30.07 in ENE 11.0 mph 16.0 mph 71 % 0.00 in
14:38 52.9 °F 44.1 °F 30.07 in ENE 6.8 mph 15.0 mph 72 % 0.00 in
14:43 52.7 °F 44.3 °F 30.07 in ENE 9.8 mph 11.5 mph 73 % 0.00 in
14:48 52.8 °F 44.7 °F 30.07 in ENE 7.4 mph 12.7 mph 74 % 0.00 in
14:53 52.8 °F 44.0 °F 30.07 in ENE 9.4 mph 13.8 mph 72 % 0.00 in
14:58 52.5 °F 43.7 °F 30.07 in ENE 9.7 mph 15.0 mph 72 % 0.00 in
15:03 52.3 °F 43.9 °F 30.07 in ENE 9.7 mph 13.8 mph 73 % 0.00 in
15:08 52.3 °F 44.3 °F 30.07 in ENE 10.3 mph 16.1 mph 74 % 0.00 in
15:13 52.0 °F 44.0 °F 30.07 in ENE 9.5 mph 12.7 mph 74 % 0.00 in
15:18 52.2 °F 44.2 °F 30.07 in ENE 8.0 mph 11.5 mph 74 % 0.00 in
15:23 52.2 °F 44.5 °F 30.07 in ENE 5.5 mph 10.4 mph 75 % 0.00 in
15:34 51.9 °F 43.9 °F 30.06 in ENE 9.7 mph 14.0 mph 74 % 0.00 in
15:39 51.8 °F 44.1 °F 30.06 in ENE 7.3 mph 15.0 mph 75 % 0.00 in
15:44 51.9 °F 44.6 °F 30.07 in ENE 7.5 mph 12.7 mph 76 % 0.00 in
15:49 51.9 °F 44.6 °F 30.07 in ENE 8.8 mph 11.5 mph 76 % 0.00 in
15:54 51.8 °F 44.5 °F 30.07 in East 4.8 mph 9.2 mph 76 % 0.00 in
15:59 51.9 °F 44.2 °F 30.07 in East 6.8 mph 13.8 mph 75 % 0.00 in
16:04 52.0 °F 44.3 °F 30.07 in ENE 5.4 mph 9.2 mph 75 % 0.00 in
16:09 52.1 °F 44.1 °F 30.07 in East 3.6 mph 9.2 mph 74 % 0.00 in
16:14 52.0 °F 43.6 °F 30.07 in ENE 8.8 mph 11.5 mph 73 % 0.00 in
16:20 51.8 °F 44.1 °F 30.08 in NE 3.5 mph 6.9 mph 75 % 0.00 in
16:30 51.7 °F 43.7 °F 30.07 in ENE 5.0 mph 6.9 mph 74 % 0.00 in
16:35 51.8 °F 44.1 °F 30.06 in ENE 4.5 mph 10.4 mph 75 % 0.00 in
16:40 52.0 °F 44.7 °F 30.06 in East 5.9 mph 8.1 mph 76 % 0.00 in
16:45 52.4 °F 44.7 °F 30.06 in East 5.1 mph 8.0 mph 75 % 0.00 in
16:50 52.4 °F 44.7 °F 30.07 in NE 5.0 mph 6.9 mph 75 % 0.00 in
16:55 52.1 °F 44.4 °F 30.06 in ENE 5.0 mph 10.4 mph 75 % 0.00 in
17:00 52.0 °F 44.7 °F 30.07 in ENE 3.6 mph 5.8 mph 76 % 0.00 in
17:11 51.7 °F 44.0 °F 30.07 in ENE 4.3 mph 10.4 mph 75 % 0.00 in
17:16 51.6 °F 44.3 °F 30.07 in ENE 3.6 mph 8.1 mph 76 % 0.00 in
17:26 51.3 °F 44.0 °F 30.07 in ENE 5.6 mph 9.2 mph 76 % 0.00 in
17:31 51.2 °F 43.9 °F 30.07 in East 3.8 mph 6.9 mph 76 % 0.00 in
17:36 51.2 °F 44.2 °F 30.07 in ENE 4.2 mph 9.2 mph 77 % 0.00 in
17:41 51.0 °F 44.0 °F 30.07 in East 3.7 mph 5.0 mph 77 % 0.00 in
17:46 51.0 °F 43.7 °F 30.07 in ENE 5.1 mph 7.0 mph 76 % 0.00 in
17:56 50.9 °F 44.3 °F 30.07 in East 4.7 mph 6.0 mph 78 % 0.00 in
18:02 50.8 °F 43.8 °F 30.07 in East 4.2 mph 8.0 mph 77 % 0.00 in
18:07 50.8 °F 44.2 °F 30.07 in East 4.2 mph 5.8 mph 78 % 0.00 in
18:12 50.8 °F 44.2 °F 30.07 in NE 2.7 mph 4.0 mph 78 % 0.00 in
18:17 50.8 °F 44.2 °F 30.07 in East 3.3 mph 5.0 mph 78 % 0.00 in
18:22 50.8 °F 44.2 °F 30.06 in East 4.1 mph 7.0 mph 78 % 0.00 in
18:27 50.9 °F 44.3 °F 30.05 in East 4.5 mph 5.8 mph 78 % 0.00 in
18:32 50.9 °F 43.6 °F 30.05 in ENE 4.0 mph 6.9 mph 76 % 0.00 in
18:37 50.8 °F 43.2 °F 30.06 in East 4.9 mph 6.9 mph 75 % 0.00 in
18:42 50.7 °F 43.1 °F 30.06 in East 4.5 mph 5.8 mph 75 % 0.00 in
18:47 50.6 °F 43.0 °F 30.07 in ESE 4.6 mph 6.0 mph 75 % 0.00 in
18:53 50.6 °F 43.0 °F 30.07 in East 3.5 mph 5.8 mph 75 % 0.00 in
18:58 50.5 °F 43.2 °F 30.07 in East 4.0 mph 5.8 mph 76 % 0.00 in
19:03 50.4 °F 43.1 °F 30.07 in East 4.0 mph 5.0 mph 76 % 0.00 in
19:08 50.3 °F 43.4 °F 30.06 in ENE 2.7 mph 4.6 mph 77 % 0.00 in
19:18 50.3 °F 43.7 °F 30.07 in East 2.9 mph 4.6 mph 78 % 0.00 in
19:23 50.3 °F 43.7 °F 30.07 in ENE 2.4 mph 3.5 mph 78 % 0.00 in
19:28 50.2 °F 43.6 °F 30.08 in ESE 2.0 mph 3.5 mph 78 % 0.00 in
19:33 50.2 °F 43.6 °F 30.08 in ESE 1.2 mph 2.0 mph 78 % 0.00 in
19:38 50.2 °F 43.6 °F 30.07 in ESE 0.3 mph 1.2 mph 78 % 0.00 in
19:44 50.2 °F 43.3 °F 30.08 in ESE 1.2 mph 2.3 mph 77 % 0.00 in
19:49 50.2 °F 43.6 °F 30.07 in ESE 0.4 mph 2.0 mph 78 % 0.00 in
19:54 50.1 °F 43.5 °F 30.07 in ESE 1.1 mph 2.3 mph 78 % 0.00 in
19:59 50.2 °F 43.3 °F 30.07 in ESE 0.3 mph 1.2 mph 77 % 0.00 in
20:04 50.1 °F 43.2 °F 30.07 in Calm   1.2 mph 77 % 0.00 in
20:09 50.2 °F 42.9 °F 30.08 in Calm     76 % 0.00 in
20:14 50.1 °F 41.4 °F 30.08 in SSE 1.4 mph 3.5 mph 72 % 0.00 in
20:19 50.1 °F 40.7 °F 30.08 in SE 1.2 mph 3.5 mph 70 % 0.00 in
20:24 50.1 °F 40.3 °F 30.08 in SE 1.0 mph 3.5 mph 69 % 0.00 in
20:29 50.0 °F 39.5 °F 30.08 in SSE 1.5 mph 4.6 mph 67 % 0.00 in
20:35 50.0 °F 39.8 °F 30.08 in SE 1.5 mph 3.5 mph 68 % 0.00 in
20:40 50.0 °F 39.5 °F 30.08 in SE 0.9 mph 2.3 mph 67 % 0.00 in
20:45 49.9 °F 39.8 °F 30.09 in SE 0.2 mph 1.2 mph 68 % 0.00 in
20:50 49.9 °F 39.8 °F 30.09 in Calm     68 % 0.00 in
20:55 49.9 °F 40.1 °F 30.10 in Calm     69 % 0.00 in
21:00 49.7 °F 39.2 °F 30.11 in Calm     67 % 0.00 in
21:05 49.7 °F 40.3 °F 30.10 in SE 0.8 mph 3.0 mph 70 % 0.00 in
21:10 49.4 °F 39.7 °F 30.11 in Calm     69 % 0.01 in
21:15 49.2 °F 39.5 °F 30.11 in Calm     69 % 0.01 in
21:20 48.9 °F 39.9 °F 30.12 in Calm     71 % 0.02 in
21:26 48.6 °F 40.7 °F 30.12 in Calm     74 % 0.02 in
21:31 48.4 °F 41.5 °F 30.13 in Calm     77 % 0.02 in
21:36 48.1 °F 41.9 °F 30.13 in Calm     79 % 0.02 in
21:41 47.8 °F 41.6 °F 30.13 in Calm     79 % 0.02 in
21:46 47.6 °F 41.7 °F 30.14 in SE 0.2 mph 1.2 mph 80 % 0.02 in
21:51 47.4 °F 41.5 °F 30.14 in Calm     80 % 0.02 in
21:56 47.1 °F 41.9 °F 30.14 in Calm     82 % 0.02 in
22:01 46.9 °F 42.0 °F 30.14 in Calm     83 % 0.02 in
22:06 46.8 °F 42.2 °F 30.14 in Calm     84 % 0.02 in
22:11 46.7 °F 42.4 °F 30.14 in Calm     85 % 0.01 in
22:17 46.5 °F 41.9 °F 30.15 in Calm     84 % 0.01 in
22:22 46.3 °F 41.7 °F 30.15 in Calm     84 % 0.00 in
22:27 46.2 °F 41.6 °F 30.15 in Calm     84 % 0.00 in
22:32 46.1 °F 40.9 °F 30.14 in Calm     82 % 0.00 in
22:37 45.9 °F 40.7 °F 30.14 in Calm     82 % 0.00 in
22:42 45.8 °F 40.6 °F 30.14 in Calm     82 % 0.00 in
22:47 45.7 °F 40.2 °F 30.14 in ENE 0.4 mph 2.3 mph 81 % 0.00 in
22:52 45.6 °F 40.1 °F 30.14 in ENE 0.5 mph 1.2 mph 81 % 0.00 in
22:57 45.5 °F 39.7 °F 30.14 in Calm   1.2 mph 80 % 0.00 in
23:02 45.4 °F 39.6 °F 30.13 in ENE 2.1 mph 3.5 mph 80 % 0.00 in
23:07 45.3 °F 38.8 °F 30.13 in NE 0.9 mph 2.3 mph 78 % 0.00 in
23:13 45.3 °F 39.2 °F 30.13 in NE 1.0 mph 2.3 mph 79 % 0.00 in
23:18 45.4 °F 38.9 °F 30.13 in NE 2.4 mph 3.5 mph 78 % 0.00 in
23:23 45.4 °F 38.6 °F 30.13 in NE 0.8 mph 2.3 mph 77 % 0.00 in
23:28 45.4 °F 38.3 °F 30.13 in ENE 1.7 mph 3.5 mph 76 % 0.00 in
23:33 45.5 °F 38.7 °F 30.12 in ENE 2.7 mph 3.5 mph 77 % 0.00 in
23:38 45.6 °F 38.1 °F 30.12 in ENE 1.5 mph 3.5 mph 75 % 0.00 in
23:43 45.7 °F 38.9 °F 30.12 in ENE 0.2 mph 1.2 mph 77 % 0.00 in
23:48 45.7 °F 39.6 °F 30.12 in ENE 1.0 mph 2.3 mph 79 % 0.00 in
23:53 45.7 °F 39.2 °F 30.12 in ENE 1.3 mph 2.3 mph 78 % 0.00 in
23:58 45.8 °F 39.7 °F 30.12 in ENE 3.3 mph 5.0 mph 79 % 0.00 in
Crab Meadow Weather
Compliments of Weather Underground - 3 mb

Script developed by  Jim McMurry - jmcmurry@mwt.net Adapted for the template by  Wim van der Kuil - Leuven-Template.eu

Extremes: Alaska and Hawaii have the same heat record. In Pahala, Hawaii the temperature on April 27, 1931 was 100 degrees F. Alaska's state heat record is also 100 degrees F. on June 27, 1915 at Fort Yukon.